User: anonymous   Login
Location: Bridgewater
(44.3670°N, 64.5170°W)
Time: 13:08:32
(UTC-03:00)
Language:

OPAL - Orbit

View from above orbital plane
View from above orbital plane
View from above satellite
View from above satellite

Ground track
Ground track

The orbit data is extracted from the following two-line orbital elements,

1 26063U 00004C   14296.46725814  .00000277  00000-0  11396-3 0   934
2 26063 100.2261 106.2172 0037002 155.8798 204.4124 14.36420498772447
Epoch (UTC): 23 October 2014 11:12:51
Eccentricity: 0.0037002
inclination: 100.2261°
perigee height: 744 km
apogee height: 797 km
right ascension of ascending node: 106.2172°
argument of perigee: 155.8798°
revolutions per day: 14.36420498
mean anomaly at epoch: 204.4124°
orbit number at epoch: 77244

The dashed part of the orbit path shows where the satellite is in the earth's shadow,  

DLR